Precipitable_Water
1.11 1.11 1.07 1.04 1.05 1.08 1.13 1.21 1.33 1.37 1.44 1.52 1.49 1.46 1.42 1.47 1.52 1.44 1.30 1.30 1.29 1.23
1.14 1.08 1.03 1.04 1.06 1.05 1.11 1.17 1.28 1.38 1.44 1.51 1.52 1.41 1.39 1.36 1.44 1.52 1.41 1.25 1.30 1.23
1.13 1.15 1.11 1.08 1.02 1.01 1.02 1.11 1.15 1.28 1.39 1.49 1.55 1.53 1.42 1.32 1.38 1.47 1.45 1.43 1.29 1.19
1.16 1.13 1.15 1.08 1.02 1.00 1.03 1.06 1.12 1.16 1.26 1.39 1.50 1.56 1.47 1.36 1.29 1.29 1.38 1.43 1.41 1.28
1.16 1.13 1.05 1.07 1.09 1.05 0.98 1.04 1.14 1.21 1.25 1.36 1.39 1.45 1.40 1.32 1.32 1.17 1.17 1.33 1.38 1.35
1.13 1.16 1.13 1.07 1.06 1.10 1.04 1.02 1.08 1.23 1.22 1.19 1.26 1.36 1.40 1.35 1.30 1.24 1.09 1.13 1.23 1.26
1.09 1.17 1.18 1.16 1.11 1.08 1.10 1.04 1.02 1.07 1.18 1.25 1.29 1.31 1.33 1.34 1.29 1.24 1.22 1.19 1.11 1.15
1.07 1.15 1.21 1.19 1.18 1.13 1.10 1.11 1.11 1.05 1.17 1.27 1.34 1.39 1.37 1.36 1.33 1.28 1.24 1.25 1.24 1.20
1.36 1.31 1.29 1.30 1.27 1.22 1.16 1.12 1.15 1.17 1.20 1.19 1.29 1.41 1.46 1.45 1.37 1.34 1.28 1.23 1.25 1.27
1.50 1.51 1.52 1.49 1.44 1.41 1.36 1.32 1.18 1.19 1.22 1.22 1.27 1.36 1.47 1.53 1.52 1.43 1.38 1.35 1.35 1.32
1.52 1.55 1.65 1.69 1.63 1.56 1.54 1.49 1.46 1.40 1.38 1.34 1.35 1.42 1.49 1.57 1.61 1.59 1.58 1.60 1.60 1.57
1.47 1.50 1.55 1.56 1.63 1.69 1.70 1.66 1.63 1.63 1.59 1.55 1.56 1.65 1.63 1.64 1.64 1.63 1.61 1.66 1.70 1.71
1.54 1.52 1.43 1.47 1.52 1.59 1.62 1.63 1.70 1.71 1.75 1.67 1.63 1.72 1.76 1.80 1.77 1.61 1.63 1.74 1.74 1.76
1.52 1.49 1.50 1.52 1.49 1.46 1.46 1.47 1.44 1.47 1.59 1.69 1.79 1.80 1.78 1.82 1.83 1.74 1.72 1.69 1.68 1.78
Wind_Speed
25 23 22 20 18 18 16 15 14 13 12 11 10 9 9 9 8 7 6 6 4 4
26 25 23 21 20 19 17 16 15 14 14 12 11 10 10 11 11 11 9 9 7 6
26 25 24 22 21 20 19 18 17 16 16 15 13 12 11 11 12 13 12 12 10 9
26 25 24 23 23 22 20 19 19 18 17 17 16 15 14 13 13 14 15 14 13 12
26 25 25 24 23 22 21 21 19 18 18 17 16 17 16 15 14 15 16 17 16 16
26 25 24 23 23 22 21 21 20 19 18 18 17 16 17 17 16 15 16 17 18 18
26 24 23 22 21 21 20 20 20 20 20 18 17 17 17 17 17 16 16 16 18 19
24 24 22 21 20 20 20 19 19 19 19 18 17 16 16 16 16 17 17 17 17 19
24 23 22 21 20 19 19 19 19 20 20 19 18 18 17 16 16 17 18 18 18 19
25 25 24 23 22 21 20 20 21 21 21 21 20 20 19 19 18 18 18 19 19 19
24 24 24 23 23 23 22 22 22 22 22 22 23 22 22 22 22 21 20 21 21 21
24 24 23 23 23 23 23 24 24 24 24 24 24 24 25 24 25 24 25 24 25 26
26 26 26 25 24 23 23 24 25 26 26 26 26 25 26 26 26 27 27 27 28 29
30 29 29 28 27 26 26 25 25 25 26 27 27 27 27 28 28 29 28 29 30 30
Wind_Direction
208 209 210 212 213 215 216 219 221 223 225 227 225 224 221 221 216 213 208 198 186 172
209 210 212 214 217 219 220 223 224 225 224 226 226 228 229 228 227 226 223 219 217 215
210 212 214 216 219 222 224 226 227 228 227 229 231 231 232 234 233 231 230 229 229 232
211 214 216 219 222 225 227 228 229 230 231 232 232 234 235 238 237 235 234 234 236 238
213 215 217 221 223 225 227 228 230 230 230 232 233 234 235 237 240 240 238 237 238 239
211 214 216 219 221 223 225 227 227 227 228 230 232 234 236 238 240 242 241 241 240 242
208 211 214 217 219 222 223 225 226 227 230 232 234 235 237 238 240 242 243 244 246 246
207 211 213 215 218 221 222 223 224 225 226 230 232 234 234 238 240 240 243 248 250 253
208 210 212 215 217 220 221 223 225 225 228 231 234 234 236 238 241 242 245 249 254 257
213 216 218 221 222 223 224 227 228 230 233 236 237 236 238 241 245 248 249 252 257 260
214 218 221 223 225 228 230 232 233 235 238 240 240 240 241 244 246 250 254 256 259 262
218 221 223 224 227 231 233 236 237 239 240 243 245 245 246 247 250 253 257 261 263 265
225 227 227 228 231 234 237 240 241 242 243 245 248 248 249 250 253 256 259 264 266 268
230 231 232 233 237 239 241 244 244 245 247 248 249 251 252 252 255 259 263 266 269 272